sat.trackr.live / text

‹ back to catalog

SINOD-D 1

NORAD 40968 · 2015-058E

PAYLOAD ACTIVE UNKNOWN

§ Identity

Operator
Country
US
Launch date
2015-10-08
Launch site
AFWTR
Launch vehicle
Mass (kg)
RCS (m²)

Purposes: tech_demo

External: N2YO · Heavens-Above · Gunter

§ Orbital elements

Epoch: 2026-05-24T22:41:47.430240Z

Period
96.28 min
Inclination
64.7761°
Eccentricity
0.0117942
Mean motion
14.95704581 rev/d
Perigee alt
498.1 km
Apogee alt
662.3 km
Semi-major
6,958.3 km
B*
3.2690e-4
RAAN
331.6861°
Arg perigee
62.4072°
Mean anomaly
298.8962°
Rev number
11,318

§ Raw data

SINOD-D 11 40968U 15058E   26144.94568785  .00004018  00000+0  32690-3 0  99902 40968  64.7761 331.6861 0117942  62.4072 298.8962 14.95704581113185

JSON: /api/v1/satellites/40968 · /tle

For live sub-satellite position, see the globe view (requires WebGL).

§ Visibility from observer

Set your observer location to see the next 7 days of passes ≥ 10°. The values pass through the URL so the page stays shareable.

No JS? Fill the form by hand. The geolocation button needs JavaScript.